Regional Weather Roundup
Issued by NWS

Home | Current Version | Previous Version | Graphics & Text | Print | Product List | Glossary On
Versions: 1 2 3 4 5 6 7 8 9 10 11 12 13 14 15 16 17 18 19 20 21 22 23 24 25 26 27 28 29 30 31 32 33 34 35 36 37 38 39 40 41 42 43 44 45 46 47 48 49 50
000
ASUS44 KMEG 252200
RWRTN
TENNESSEE HOURLY STATE WEATHER ROUNDUP
NATIONAL WEATHER SERVICE MEMPHIS TN
500 PM CDT SAT APR 25 2015

TNZ002-004-019-021-049-052-054-088>092-252300-
WEST TENNESSEE

CITY           SKY/WX    TMP DP  RH WIND       PRES   REMARKS
MEMPHIS INTL   MOSUNNY   81  58  45 SW17G28   29.57R
NWS MEMPHIS      N/A     82 N/A N/A MISG        N/A
JACKSON        SUNNY     82  53  36 SW21G28   29.53F
DYERSBURG      SUNNY     79  54  41 SW21G28   29.52F
PARIS          SUNNY     77  59  53 SW17      29.50F
LEXINGTON      SUNNY     82  50  32 SW14      29.52F
SAVANNAH       SUNNY     81  32  17 SW14      29.56F
$$

TNZ008-025-027-028-033-062-065-066-252300-
NORTH MIDDLE TENNESSEE

CITY           SKY/WX    TMP DP  RH WIND       PRES   REMARKS
NASHVILLE      MOSUNNY   83  55  38 SW14G22   29.51F
CLARKSVILLE    SUNNY     81  52  36 SW17G33   29.47F
CROSSVILLE     CLOUDY    76  52  43 SW12G22   29.61F
$$

TNZ061-075-076-078-094-096-097-252300-
SOUTH MIDDLE TENNESSEE

CITY           SKY/WX    TMP DP  RH WIND       PRES   REMARKS
FAYETTEVILLE   PTSUNNY   73  64  73 SW14      29.63S
TULLAHOMA      SUNNY     75  63  64 SW18      29.62S
WINCHESTER     MOSUNNY   77  64  65 S9        29.63S
SHELBYVILLE    SUNNY     79  66  65 S16       29.59S
$$

TNZ017-018-042-046-047-252300-
NORTHEAST TENNESSEE

CITY           SKY/WX    TMP DP  RH WIND       PRES   REMARKS
TRI CITIES     CLOUDY    71  56  58 SW9       29.59F
ELIZABETHTON   CLEAR     70  55  60 W3        29.59F
$$

TNZ012-013-036-069-073-074-252300-
CENTRAL EAST TENNESSEE

CITY           SKY/WX    TMP DP  RH WIND       PRES   REMARKS
KNOXVILLE      CLOUDY    74  60  61 SW22G30   29.57F
OAK RIDGE      CLOUDY    71  61  70 VRB3      29.58F
GATLINBURG     CLEAR     75  55  50 SW12      29.56F
$$

TNZ083-085-099-252300-
SOUTHEAST TENNESSEE

CITY           SKY/WX    TMP DP  RH WIND       PRES   REMARKS
CHATTANOOGA    CLOUDY    76  62  62 SW12      29.63R
$$

SKY/WX REPORTED AS FAIR MEANS FEW OR NO CLOUDS BELOW
12 THOUSAND FEET.




USA.gov is the U.S. government's official web portal to all federal, state and local government web resources and services.